Location: Hermaringen
(48.5952°N, 10.2585°E)
Time: 09:35:41
(UTC+00:00)

A-11 Canister half - All Passes

Search period start: 17 February 2026 00:00
Search period end: 27 February 2026 00:00
Orbit: 1512 x 1687 km, 47.2° (Epoch: 16 February)

Date Brightness Start Highest point End Pass type
(mag) Time Alt. Az. Time Alt. Az. Time Alt. Az.
17 Feb - 01:25:14 10° WNW 01:35:01 66° SSW 01:44:24 10° SE visible
17 Feb - 03:30:43 10° W 03:38:42 30° SW 03:46:29 10° SSE visible
17 Feb - 18:50:45 10° S 18:58:41 27° SE 19:06:31 10° E visible
17 Feb - 20:52:26 10° SW 21:02:21 62° SSE 21:12:02 10° ENE visible
17 Feb - 22:57:01 10° W 23:07:08 84° S 23:16:54 10° E visible
18 Feb - 01:02:08 10° WNW 01:11:59 68° SSW 01:21:25 10° ESE visible
18 Feb - 03:07:33 10° WNW 03:15:46 32° SW 03:23:43 10° SSE visible
18 Feb - 18:28:01 10° S 18:35:43 25° SE 18:43:21 10° E visible
18 Feb - 20:29:26 10° SW 20:39:19 60° SSE 20:48:59 10° ENE visible
18 Feb - 22:33:55 10° W 22:44:03 83° S 22:53:51 10° E visible
19 Feb - 00:39:03 10° W 00:48:56 70° SSW 00:58:27 10° ESE visible
19 Feb - 02:44:24 10° WNW 02:52:48 34° SW 03:00:57 10° SSE visible
19 Feb - 18:05:18 10° S 18:12:45 24° SE 18:20:10 10° E visible
19 Feb - 20:06:26 10° SW 20:16:17 58° SSE 20:25:56 10° ENE visible
19 Feb - 22:10:50 10° W 22:20:59 83° S 22:30:49 10° E visible
20 Feb - 00:15:58 10° W 00:25:54 72° SSW 00:35:27 10° ESE night (unlit)
20 Feb - 02:21:15 10° WNW 02:29:51 36° SW 02:38:10 10° SSE visible
20 Feb - 17:42:38 10° S 17:49:49 22° SE 17:56:56 10° E visible
20 Feb - 19:43:27 10° SW 19:53:15 56° SSE 20:02:53 10° ENE visible
20 Feb - 21:47:44 10° WSW 21:57:54 83° S 22:07:46 10° E visible
20 Feb - 23:52:51 10° W 00:02:51 73° SSW 00:12:27 10° ESE visible
21 Feb - 01:58:07 10° WNW 02:06:53 38° SW 02:15:21 10° SSE visible
21 Feb - 17:20:00 10° S 17:26:51 21° SE 17:33:41 10° E visible
21 Feb - 19:20:28 10° SW 19:30:13 54° SSE 19:39:49 10° ENE visible
21 Feb - 21:24:39 10° WSW 21:34:50 82° S 21:44:43 10° E visible
21 Feb - 23:29:46 10° W 23:39:48 75° SSW 23:49:27 10° ESE visible
22 Feb - 01:35:00 10° WNW 01:43:54 40° SW 01:52:31 10° SSE visible
22 Feb - 03:44:08 10° WSW 03:46:32 11° WSW 03:48:55 10° SW visible
22 Feb - 16:57:24 10° SSE 17:03:55 19° SE 17:10:24 10° E daylight
22 Feb - 18:57:29 10° SW 19:07:11 52° SSE 19:16:44 10° ENE visible
22 Feb - 21:01:34 10° WSW 21:11:44 81° S 21:21:40 10° E visible
22 Feb - 23:06:40 10° W 23:16:45 76° SSW 23:26:26 10° ESE visible
23 Feb - 01:11:53 10° WNW 01:20:56 42° SW 01:29:40 10° SSE night (unlit)
23 Feb - 03:20:08 10° W 03:23:38 12° WSW 03:27:07 10° SW night (unlit)
23 Feb - 16:34:52 10° SSE 16:40:59 18° SE 16:47:04 10° E daylight
23 Feb - 18:34:32 10° SW 18:44:10 50° SSE 18:53:40 10° ENE visible
23 Feb - 20:38:29 10° WSW 20:48:40 80° S 20:58:37 10° E visible
23 Feb - 22:43:35 10° W 22:53:40 78° SSW 23:03:26 10° ESE visible
24 Feb - 00:48:45 10° WNW 00:57:57 44° SW 01:06:49 10° SSE night (unlit)
24 Feb - 02:56:26 10° W 03:00:45 14° WSW 03:05:00 10° SSW night (unlit)
24 Feb - 16:12:22 10° SSE 16:18:03 17° SE 16:23:42 10° E daylight
24 Feb - 18:11:36 10° SW 18:21:08 48° SE 18:30:36 10° ENE visible
24 Feb - 20:15:24 10° WSW 20:25:36 79° SSE 20:35:34 10° E visible
24 Feb - 22:20:29 10° W 22:30:37 79° SSW 22:40:25 10° ESE visible
25 Feb - 00:25:38 10° WNW 00:34:57 46° SW 00:43:56 10° SSE visible
25 Feb - 02:32:53 10° W 02:37:51 15° SW 02:42:43 10° SSW night (unlit)
25 Feb - 15:49:58 10° SSE 15:55:07 15° SE 16:00:16 10° E daylight
25 Feb - 17:48:40 10° SSW 17:58:07 46° SE 18:07:31 10° ENE visible
25 Feb - 19:52:19 10° WSW 20:02:31 78° SSE 20:12:31 10° E visible
25 Feb - 21:57:22 10° W 22:07:33 80° S 22:17:23 10° ESE visible
26 Feb - 00:02:31 10° WNW 00:11:57 48° SW 00:21:03 10° SE visible
26 Feb - 02:09:27 10° W 02:14:56 17° SW 02:20:21 10° SSW night (unlit)
26 Feb - 15:27:39 10° SSE 15:32:12 14° ESE 15:36:44 10° E daylight
26 Feb - 17:25:45 10° SSW 17:35:07 44° SE 17:44:25 10° ENE visible
26 Feb - 19:29:15 10° WSW 19:39:27 77° SSE 19:49:27 10° E visible
26 Feb - 21:34:17 10° W 21:44:28 81° S 21:54:21 10° ESE visible
26 Feb - 23:39:25 10° WNW 23:48:57 50° SSW 23:58:10 10° SE visible
